Regional Weather Roundup
Issued by NWS

Home | Current Version | Previous Version | Text Only | Print | Product List | Glossary Off
Versions: 1 2 3 4 5 6 7 8 9 10 11 12 13 14 15 16 17 18 19 20 21 22 23 24 25 26 27 28 29 30 31 32 33 34 35 36 37 38 39 40 41 42 43 44 45 46 47 48 49 50

000
ASUS43 KDTX 231810
RWRMI
MICHIGAN HOURLY REGIONAL WEATHER ROUNDUP
NATIONAL WEATHER SERVICE DETROIT/PONTIAC MI
100 PM EST SUN NOV 23 2014

NOTE: "FAIR" INDICATES FEW OR NO CLOUDS BELOW 12,000 FEET WITH NO
SIGNIFICANT WEATHER AND/OR OBSTRUCTION TO VISIBILITY.

MIZ047>049-052>055-059>063-066>070-074>076-081>083-231900-
SOUTHEAST LOWER MICHIGAN

CITY           SKY/WX    TMP DP  RH WIND       PRES   REMARKS
ADRIAN         CLOUDY    51  46  83 S10       29.80F
6HR MIN TEMP:  43; 6HR MAX TEMP:  51; 6HR PCP: TRACE;

ALMA           CLOUDY    49  47  91 S6        29.75F
6HR MIN TEMP:  46; 6HR MAX TEMP:  50;

ANN ARBOR      CLOUDY    50  44  80 S9        29.81F
BAD AXE        CLOUDY    50  47  90 S13       29.79F
6HR MIN TEMP:  45; 6HR MAX TEMP:  50;

CARO           CLOUDY    52  46  82 S12       29.79F
DETROIT CITY   CLOUDY    52  44  74 S9        29.85F
6HR MIN TEMP:  46; 6HR MAX TEMP:  52; 6HR PCP:  0.01;

DETROIT        CLOUDY    49  44  83 SE7       29.84F
6HR MIN TEMP:  44; 6HR MAX TEMP:  50; 6HR PCP:  0.02;

FLINT          CLOUDY    51  44  77 S15       29.79F
6HR MIN TEMP:  48; 6HR MAX TEMP:  51; 6HR PCP: TRACE;

GROSSE ILE     CLOUDY    43  39  87 S7        29.83F
HILLSDALE      CLOUDY    51  47  85 S6        29.78F
6HR MIN TEMP:  45; 6HR MAX TEMP:  51;

HOWELL         CLOUDY    48  44  87 SE8       29.78F
6HR MIN TEMP:  45; 6HR MAX TEMP:  48;


CITY           SKY/WX    TMP DP  RH WIND       PRES   REMARKS
JACKSON        CLOUDY    50  44  80 S10       29.77F
6HR MIN TEMP:  46; 6HR MAX TEMP:  50; 6HR PCP:  0.01;

LAMBERTVILLE   CLOUDY    54  45  71 S5        29.82F
LANSING        CLOUDY    50  45  83 S12       29.76F
6HR MIN TEMP:  48; 6HR MAX TEMP:  50; 6HR PCP: TRACE;

LAPEER         CLOUDY    48  44  84 S12       29.81F
MASON          CLOUDY    48  45  87 S7        29.76F
MONROE         CLOUDY    50  45  81 SE6       29.82F
MT. CLEMENS    CLOUDY    45  45 100 E5        29.82F FOG
6HR MIN TEMP:  43; 6HR MAX TEMP:  46; 6HR PCP:  0.10;

PONTIAC        CLOUDY    47  43  86 SE7       29.81F
6HR MIN TEMP:  44; 6HR MAX TEMP:  47; 6HR PCP:  0.02;

PORT HOPE        N/A     51  45  79 S12G18    29.77F
6HR MIN TEMP:  45; 6HR MAX TEMP:  51;

PORT HURON     DRIZZLE   46  45  93 S7        29.85F
TRI CITIES     CLOUDY    51  46  83 S12       29.77F
6HR MIN TEMP:  49; 6HR MAX TEMP:  51; 6HR PCP: TRACE;

TROY           CLOUDY    48  45  87 SE6       29.84F
SAGINAW HB     CLOUDY    50  50 100 S10       29.76F
$$
MIZ043>046-050>051-056>058-064>065-071>073-077>080-231900-
SOUTHWEST LOWER MICHIGAN

CITY           SKY/WX    TMP DP  RH WIND       PRES   REMARKS
BATTLE CREEK   CLOUDY    52  44  74 S8        29.74F
6HR MIN TEMP:  48; 6HR MAX TEMP:  52; 6HR PCP: TRACE;

BENTON HARBOR  CLOUDY    51  45  79 SE7       29.68F
6HR MIN TEMP:  48; 6HR MAX TEMP:  52; 6HR PCP: TRACE;

BIG RAPIDS     LGT RAIN  47  46  95 S8        29.70F
6HR MIN TEMP:  43; 6HR MAX TEMP:  48;

COLDWATER      CLOUDY    52  46  79 S8G16     29.75F
6HR MIN TEMP:  46; 6HR MAX TEMP:  52;

FREMONT        LGT RAIN  46  45  97 S7        29.69F
HOLLAND        CLOUDY    52  46  80 S9        29.70F
6HR MIN TEMP:  49; 6HR MAX TEMP:  53; 6HR PCP:  0.01;

GRAND RAPIDS   CLOUDY    50  45  83 S10       29.72F
6HR MIN TEMP:  46; 6HR MAX TEMP:  50; 6HR PCP:  0.01;

IONIA          MOCLDY    50  47  90 S9        29.73F
KALAMAZOO      CLOUDY    52  44  74 S7        29.73F
6HR MIN TEMP:  47; 6HR MAX TEMP:  52; 6HR PCP: TRACE;

LUDINGTON      LGT RAIN  49  46  90 S13G20    29.65F
6HR MIN TEMP:  49; 6HR MAX TEMP:  52;

MARSHALL       CLOUDY    50  45  81 S5        29.74F
MOUNT PLEASANT CLOUDY    51  47  85 S9        29.73F
6HR MIN TEMP:  46; 6HR MAX TEMP:  51;

MUSKEGON       LGT RAIN  52  47  83 S10G24    29.68F
6HR MIN TEMP:  51; 6HR MAX TEMP:  54; 6HR PCP:  0.05;

SOUTH HAVEN    CLOUDY    52  46  79 S7        29.70F
$$
MIZ016>042-231900-
NORTHERN LOWER MICHIGAN

CITY           SKY/WX    TMP DP  RH WIND       PRES   REMARKS
ALPENA         CLOUDY    50  43  77 S12       29.71F
6HR MIN TEMP:  38; 6HR MAX TEMP:  50;

BEAVER ISLAND  CLOUDY    48  46  95 S7        29.62F
6HR MIN TEMP:  46; 6HR MAX TEMP:  48;

BELLAIRE       CLOUDY    49  44  81 S6        29.65F
CADILLAC       CLOUDY    46  44  93 S9        29.66F
CHARLEVOIX     CLOUDY    47  46  95 S8        29.67F
6HR MIN TEMP:  44; 6HR MAX TEMP:  47;

FRANKFORT      CLOUDY    49  45  86 S12G20    29.63F
GAYLORD        CLOUDY    44  42  93 S15G22    29.67F FOG
6HR MIN TEMP:  40; 6HR MAX TEMP:  44;

GRAYLING       CLOUDY    48  45  89 S8        29.69F
6HR MIN TEMP:  41; 6HR MAX TEMP:  48;

HARBOR SPRINGS CLOUDY    47  44  91 S6        29.66F
HOUGHTON LAKE  CLOUDY    48  45  89 S8        29.70F
6HR MIN TEMP:  42; 6HR MAX TEMP:  48;

MANISTEE       CLOUDY    48  43  81 S6        29.65F
OSCODA         CLOUDY    49  46  89 S15G22    29.74F
PELLSTON       CLOUDY    46  44  93 S6        29.66F
6HR MIN TEMP:  37; 6HR MAX TEMP:  46;

ROGERS CITY    CLOUDY    48  47  98 S6        29.70F FOG
TRAVERSE CITY  CLOUDY    52  43  71 S7        29.63F
6HR MIN TEMP:  47; 6HR MAX TEMP:  52;

$$
MIZ007>008-015-231900-
EASTERN UPPER MICHIGAN

CITY           SKY/WX    TMP DP  RH WIND       PRES   REMARKS
KINROSS        CLOUDY    39  39 100 SE12      29.64F VSB<1/4 WCI  32
6HR MIN TEMP:  37; 6HR MAX TEMP:  43;

MACKINAC ISLAN FOG       45  45 100 S6        29.64F VSB 3/4
6HR MIN TEMP:  41; 6HR MAX TEMP:  45;

NEWBERRY       FOG       42  42 100 S9G22     29.59F VSB<1/4
S. S. MARIE    FOG       41  40  96 E7        29.65F VSB<1/4
6HR MIN TEMP:  35; 6HR MAX TEMP:  41; 6HR PCP:  0.05;

MUNISING         N/A     47  43  86 S14G21    29.52F
6HR MIN TEMP:  40; 6HR MAX TEMP:  48; 6HR PCP:  0.01;

$$
MIZ004>006-011>014-085-231900-
CENTRAL UPPER MICHIGAN

CITY           SKY/WX    TMP DP  RH WIND       PRES   REMARKS
MANISTIQUE     LGT RAIN  41  41 100 SW8G17    29.60F VSB<1/4
ESCANABA       CLOUDY    43  39  87 S12       29.56F VSB 1/4
6HR MIN TEMP:  43; 6HR MAX TEMP:  45;

MENOMINEE      CLOUDY    45  45 100 S9        29.55F
6HR MIN TEMP:  45; 6HR MAX TEMP:  46;

SAWYER-GWINN   FOG       43  41  93 S13       29.52F VSB 1/8
$$
MIZ001>003-009>011-084-231900-
WESTERN UPPER MICHIGAN

CITY           SKY/WX    TMP DP  RH WIND       PRES   REMARKS
IRON MOUNTAIN  FOG       42  42 100 S6        29.51F VSB<1/4
6HR MIN TEMP:  37; 6HR MAX TEMP:  43;

HOUGHTON       CLOUDY    41  39  93 E7        29.45F
6HR MIN TEMP:  36; 6HR MAX TEMP:  42;

COPPER HARBOR    N/A     46  41  82 SW5       29.47F
6HR MIN TEMP:  39; 6HR MAX TEMP:  46;

IRONWOOD       CLOUDY    46  46 100 SW9       29.40F
6HR MIN TEMP:  43; 6HR MAX TEMP:  46;

$$

ABBREVIATIONS USED IN REMARKS
   TC - TEMPERATURE IN CELSIUS
  WCI - WIND CHILL INDEX
   HX - HEAT INDEX
  VSB - VISIBILITY




USA.gov is the U.S. government's official web portal to all federal, state and local government web resources and services.